Regional Weather Roundup
Issued by NWS

Home | Current Version | Previous Version | Text Only | Print | Product List | Glossary On
Versions: 1 2 3 4 5 6 7 8 9 10 11 12 13 14 15 16 17 18 19 20 21 22 23 24 25 26 27 28 29 30 31 32 33 34 35 36 37 38 39 40 41 42 43 44 45 46 47 48 49 50
000
ASUS44 KFWD 170410
RWRTX
NORTH TEXAS HOURLY WEATHER ROUNDUP
NATIONAL WEATHER SERVICE FORT WORTH TX
1100 PM CDT WED AUG 16 2017

NOTE: "FAIR" INDICATES FEW OR NO CLOUDS BELOW 12,000 FEET WITH NO
SIGNIFICANT WEATHER AND/OR OBSTRUCTIONS TO VISIBILITY.

TXZ118-119-170500-
DALLAS/FORT WORTH METROPLEX

CITY           SKY/WX    TMP DP  RH WIND       PRES   REMARKS
DFW AIRPORT    PTCLDY    88  70  55 S9        29.87R HX  93
DALLAS LOVE    PTCLDY    91  68  46 S12       29.87R HX  95
FTW MEACHAM    CLEAR     87  71  58 S7        29.88R HX  93
DAL-EXECUTIVE  CLEAR     89  70  53 S8G18     29.88R HX  94
FTW-ALLIANCE   PTCLDY    85  71  63 S5        29.87S HX  90
FTW-NAS-JRB    CLEAR     86  70  58 S9        29.88R HX  90
FTW-SPINKS     CLEAR     83  69  64 SE5       29.91R
ARLINGTON      CLEAR     87  70  56 S8        29.89R HX  92
GRAND PRAIRIE  CLEAR     88  67  49 S6        29.90R HX  90
ADDISON        CLEAR     90  68  47 S7        29.90R HX  93
MESQUITE       CLEAR     83  71  67 S8        29.89S
LANCASTER      CLEAR     84  69  62 S5        29.89S
$$

TXZ091>094-102>105-117-120-121-131>134-170500-
NORTH CENTRAL TEXAS

CITY           SKY/WX    TMP DP  RH WIND       PRES   REMARKS
SHRMAN/DENISON CLEAR     83  73  70 SE5       29.90R
GAINESVILLE    CLEAR     78  74  85 CALM      29.91R
BOWIE          CLOUDY    83  75  77 S3        29.91R
BRIDGEPORT     CLEAR     84  70  61 S7        29.90R
DECATUR        CLEAR     85  72  65 S7        29.90R HX  90
DENTON         CLEAR     82  72  71 S6        29.87S
MCKINNEY       CLEAR     82  76  81 SE3       29.89R
BONHAM         CLEAR     82  73  74 SE8       29.90S
GREENVILLE     CLEAR     86  75  70 SE8       29.90S HX  95
ROCKWALL       CLEAR     85  72  65 S7G20     29.89S HX  91
TERRELL        CLEAR     84  72  67 S7        29.90R
WAXAHACHIE     CLEAR     85  71  62 S10       29.91R HX  90
CLEBURNE       PTCLDY    84  72  65 S7        29.92R
GRANBURY       CLEAR     85  70  59 S7        29.90S HX  90
$$

TXZ083>090-098>101-113>116-127>130-139>142-154-155-170500-
WESTERN NORTH TEXAS

CITY           SKY/WX    TMP DP  RH WIND       PRES   REMARKS
WICHITA FALLS  CLOUDY    85  74  69 S10       29.88R HX  92
WF-KICKAPOO    CLOUDY    85  75  72 SE8       29.91R HX  93
VERNON         CLOUDY    79  71  75 CALM      29.91R
ABILENE        CLOUDY    79  68  69 S10       29.94R
ABILENE-DYESS  DRIZZLE   79  68  69 SW7       29.94R
GRAHAM         CLOUDY    86  71  60 SE8       29.88R HX  91
BRECKENRIDGE   CLOUDY    86  70  59 S6        29.91R HX  91
CISCO          MOCLDY    82  72  69 S5        29.94R
EASTLAND       CLOUDY    82  70  65 S6        29.93R
RANGER         CLOUDY    83  68  60 S6        29.93R
MINERAL WELLS  CLEAR     82  71  69 SE8       29.88R
STEPHENVILLE   CLEAR     80  70  71 CALM      29.94S
COMANCHE       CLEAR     83  67  57 S6        29.93R
BROWNWOOD      CLOUDY    82  68  61 SE3       29.93R
COLEMAN        CLOUDY    82  68  64 SW6       29.96R
$$

TXZ143>147-156>162-174-175-170500-
CENTRAL TEXAS

CITY           SKY/WX    TMP DP  RH WIND       PRES   REMARKS
WACO           CLEAR     89  71  55 S20       29.91R HX  95
WACO-TSTC      CLEAR     88  72  58 S7G18     29.91R HX  94
HILLSBORO      CLEAR     87  73  61 SE16      29.90R HX  94
CORSICANA      CLEAR     88  73  61 S15       29.92R HX  95
MEXIA          CLEAR     86  70  58 S17G24    29.92R HX  90
HEARNE         CLEAR     83  73  69 SE8       29.95R
CAMERON        CLEAR     85  73  65 S13G20    29.93R HX  92
TEMPLE         CLEAR     87  71  58 S23       29.92R HX  93
KILLEEN        CLEAR     86  71  60 SE17      29.92R HX  91
FORT HOOD      CLEAR     86  70  59 S16G22    29.90R HX  90
HAMILTON       CLEAR     82  68  60 S8        29.93S
$$

TXZ095>097-106>112-122>126-135>138-148>153-164>167-170500-
EAST TEXAS

CITY           SKY/WX    TMP DP  RH WIND       PRES   REMARKS
SULPHUR SPRNGS CLEAR     86  74  68 S9G17     29.93R HX  93
MOUNT PLEASANT CLEAR     80  74  83 SE6       29.93R
GILMER         CLEAR     83  74  75 SE8       29.94R HX  90
MINEOLA        CLEAR     86  75  70 S8G18     29.91R HX  95
TYLER          CLEAR     85  77  77 S13       29.93R HX  95
LONGVIEW       CLEAR     84  78  82 S9        29.94R HX  95
MARSHALL         N/A     79  75  87 S7        29.98R
ATHENS         PTCLDY    84  73  70 S13       29.91R HX  91
PALESTINE      CLEAR     85  77  76 S8        29.95R HX  96
JACKSONVILLE   CLEAR     82  77  84 S9G17     29.98R HX  91
HENDERSON      CLEAR     83  76  78 S8        29.97R HX  91
CENTER         CLEAR     85  81  86 S9        29.99R HX 100
LUFKIN         CLEAR     82  76  81 S9        29.97R
$$

SUPPLEMENTAL OBSERVATIONS (NWS FORT WORTH AREA)

CITY           SKY/WX    TMP DP  RH WIND       PRES   REMARKS
CADDO GRASSLND   N/A     82  73  74 S5          N/A
PAT MAYSE LAKE   N/A     84  79  84 SE12        N/A  HX  96
GREENVILLE       N/A     82  73  74 SE5         N/A
CEDAR HILL       N/A     88  68  51 S10         N/A  HX  91
LBJ GRASSLAND    N/A     84  72  65 S7          N/A
POSSUM KINGDOM   N/A     84  70  61 S7          N/A
GRANBURY         N/A     84  68  58 S8          N/A
MCGREGOR         N/A     88  70  55 S17G23      N/A  HX  92
TEMPLE           N/A     86  70  58 S10G21      N/A  HX  90
$$

SUPPLEMENTAL OBSERVATIONS (NWS NORMAN AREA)

CITY           SKY/WX    TMP DP  RH WIND       PRES   REMARKS
GOODLETT         N/A     75  66  72 NW8       29.94R
ODELL            N/A     79  74  83 W2        29.92R
CROWELL          N/A     77  73  86 W2        29.93R
KNOX CITY        N/A     80  67  63 W5        29.94R
SEYMOUR          N/A     85  72  66 SW7       29.91R HX  90
MILLERS CREEK    N/A     82  72  69 S1G13       N/A
$$

SUPPLEMENTAL OBSERVATIONS (NWS SAN ANGELO AREA)

CITY           SKY/WX    TMP DP  RH WIND       PRES   REMARKS
HASKELL          N/A     80  71  72 SW7       29.94R
THROCKMORTON     N/A     85  74  68 S7        29.91R HX  92
STAMFORD         N/A     81  63  53 SW9       29.94R
CLYDE            N/A     82  70  66 S12       29.97R
HAMBY            N/A     81  66  61 SW6         N/A
IVIE RESERVOIR   N/A     81  70  69 SE3         N/A
COLORADO BEND    N/A     84  68  58 S10         N/A
$$

SUPPLEMENTAL OBSERVATIONS (NWS SHREVEPORT AREA)

CITY           SKY/WX    TMP DP  RH WIND       PRES   REMARKS
CLARKSVILLE      N/A     81  73  78 SE2         N/A
GILMER           N/A     82  73  74 S6G14       N/A
HENDERSON        N/A     82  75  78 S8G17       N/A
LUFKIN           N/A     82  75  78 MISG        N/A
N SABINE NF      N/A     81  75  83 MISG        N/A
$$

SUPPLEMENTAL OBSERVATIONS ARE A COLLECTION OF AUTOMATED INSTRUMENTS
THAT ARE MAINTAINED BY A VARIETY OF FEDERAL AND STATE AGENCIES.
CERTAIN ELEMENTS...SUCH AS HUMIDITY VALUES AND SUSTAINED WIND
SPEEDS...MAY BE APPROXIMATED.





USA.gov is the U.S. government's official web portal to all federal, state and local government web resources and services.